Showing default

COSMOS 1503, 14401

Orbit data source: Space-Track

COSMOS 1503, 14401 is a payload satellite owned by GUKOS (CIS) in LEO that was launched on Wed, 12 Oct 1983 UTC via a KOSMOS 11K65M launch vehicle from the Plesetsk Missile And Space Complex (PKMTR). Payload-class satellites include a variety of spacecraft equipped with specific instruments for various scientific and technological missions. These include communications satellites like Starlink; space stations such as the ISS; scientific satellites like the Hubble; Earth observation satellites from companies like Planet Labs, Umbra, and HawkEye 360; GPS; miniature CubeSats for education and research; and military/defense satellites.

Loading next visibility...
Identifier
14401, 1983-103A
Orbit
LEO
Country
Flag of CISCIS
Related business
Manufacturer
NPO PM
Mission
Spacecraft
Bus & Motor
STRELA-2M, Unknown motor
Mass
800 kg wet, 800 kg dry
Launch date (UTC)
1983-10-12 (43 years ago)
Launch vehicle
KOSMOS 11K65M
Launch site
Plesetsk Missile And Space Complex (PKMTR)
Object type
Payload
Rocket body
Debris
Shape & HBR
Unknown
Radar Cross Section
Large (>1 m²)

Expand to show TLE details & history
Last TLE update: 2 days ago

TLE from 2 days ago
0 COSMOS 1503
1 14401U 83103A   26171.25005860  .00000093  00000-0  43480-4 0  9993
2 14401  74.0438 108.0492 0014176 231.6559 128.3319 14.33125957229923
Epoch: 2026-06-20T06:00Z
TLE epoch observation values (Epoch: 2026-06-20T06:00:05.063Z)
Latitude
-0°
Longitude
109.56072°
Altitude
790.214 km
Speed
7.455 km/s
True Right ascension
07h 12m 11s
True Declination
0° 00' 00"
Sunlit
Object was in daylight at epoch
Visualization orbit readout
Latitude
Unknown
Longitude
Unknown
Altitude
Unknown
Speed
Unknown
Apparent Right ascension
Unknown
Apparent Declination
Unknown
Sunlit
N/A
Visualization observer readout
Local Sidereal Time
23:08:31
Azimuth
Unknown
Elevation
Unknown
Doppler factor
Unknown
Orbital elements
Apogee altitude
789.073 km
Perigee altitude
768.782 km
Semi-major axis
7,157.065 km
Eccentricity
0.00142
Inclination
74.0438°
RAAN
108.0492°
Arg. of periapsis
231.6559°
True anomaly
128.45919°
Mean anomaly
128.3319°
Eccentric anomaly
128.39556°
Mean motion
3.5846 °/min
Orbital period
100.43 mins
BSTAR
0.00004348
Loading maneuver chart data...
Computing Atmospheric mass density...
Loading historical data...
Loading historical data...
Loading historical data...
Loading historical data...
Loading historical data...
Loading historical data...
Loading historical data...
Other satellites on launch #103 in the year 1983 (1983-10-12 UTC)

Documentation

Showing up to 5 results
|